Location: Dead Woman Crossing
(43.5369°N, 106.3228°W)
Time: 09:31:47
(UTC+00:00)

AO-73 - Visible Passes

Search period start: 27 June 2022 00:00
Search period end: 07 July 2022 00:00
Orbit: 578 x 658 km, 97.6° (Epoch: 26 June)

Date Brightness Start Highest point End Pass type
(mag) Time Alt. Az. Time Alt. Az. Time Alt. Az.
29 Jun ? 09:57:03 10° ENE 09:59:21 14° E 10:01:40 10° ESE visible
30 Jun ? 10:12:55 10° NE 10:16:16 20° E 10:19:38 10° SE visible
01 Jul ? 10:29:12 10° NE 10:33:09 30° E 10:37:07 10° SSE visible
02 Jul ? 10:45:40 10° NNE 10:49:59 44° E 10:54:18 10° S visible
04 Jul ? 09:46:12 10° E 09:46:52 10° E 09:47:33 10° E visible
05 Jul ? 10:01:04 10° NE 10:03:48 16° E 10:06:33 10° SE visible
06 Jul ? 10:17:05 10° NE 10:20:42 23° E 10:24:18 10° SSE visible
